Regional Weather Roundup
Issued by NWS Northern Indiana

Home | Current Version | Previous Version | Text Only | Print | Product List | Glossary Off
Versions: 1 2 3 4 5 6 7 8 9 10 11 12 13 14 15 16 17 18 19 20 21 22 23 24 25 26 27 28 29 30 31 32 33 34 35 36 37 38 39 40 41 42 43 44 45 46 47 48 49 50

000
ASUS43 KIWX 180400
RWRIWX

KIWX WEATHER ROUNDUP
NATIONAL WEATHER SERVICE NORTHERN INDIANA
1100 PM EST SUN DEC 17 2017

NOTE: "FAIR" INDICATES FEW OR NO CLOUDS BELOW 12,000 FEET WITH NO
SIGNIFICANT WEATHER AND/OR OBSTRUCTIONS TO VISIBILITY.

* THESE STATIONS ARE NOT UNDER NWS QUALITY CONTROL. THEY ALSO MAY NOT
  REPORT WEATHER SUCH AS PRECIPITATION OR FOG.

INZ001>027-180500-
NORTHERN INDIANA

CITY           SKY/WX    TMP DP  RH WIND       PRES   REMARKS
GARY*          CLOUDY    45  37  76 SW6       30.01F
KNOX*          CLOUDY    41  36  81 SW10      30.02S
SOUTH BEND     CLOUDY    38  36  92 SW10      30.02S
GOSHEN         CLOUDY    40  36  86 SW12      30.02F
MONTICELLO*    CLOUDY    41  38  89 S10       30.04F
WARSAW*        CLOUDY    39  36  87 SW5       30.03F
FORT WAYNE     CLOUDY    38  37  97 SW7       30.06F
PERU/GRISSOM   CLOUDY    40  40 100 SW9       30.05F

$$
INZ028>050-180500-
CENTRAL INDIANA

CITY           SKY/WX    TMP DP  RH WIND       PRES   REMARKS
LAFAYETTE      CLOUDY    41  38  89 SW7       30.06F
KOKOMO*        CLOUDY    39  37  92 S8        30.07S
MUNCIE*        CLOUDY    42  34  73 SW8       30.08R
INDIANAPOLIS   CLOUDY    40  36  86 S6        30.09S

$$
MIZ043>046-050>051-056>058-064>065-071>073-077>080-180500-
SOUTHWEST LOWER MICHIGAN

CITY           SKY/WX    TMP DP  RH WIND       PRES   REMARKS
BATTLE CREEK   CLOUDY    36  33  89 S8        29.99F
BENTON HARBOR  CLOUDY    40  34  79 S5        30.00R
COLDWATER*     CLOUDY    37  35  92 S7        30.01S
HILLSDALE*     CLOUDY    34  32  93 S9        30.00F FOG     WCI  26
HOLLAND        CLOUDY    30  28  92 CALM      29.98F FOG
GRAND RAPIDS   CLOUDY    28  27  96 E3        29.99S FOG
KALAMAZOO      CLOUDY    37  33  85 S7        30.00S
STURGIS*       CLOUDY    37  35  91 SW9       30.01S
THREE RIVERS*  CLOUDY    38  35  87 SW8       30.01F

$$
OHZ001>008-015>018-024>025-180500-
NORTHWEST OHIO

CITY           SKY/WX    TMP DP  RH WIND       PRES   REMARKS
DEFIANCE       CLOUDY    38  34  85 S8        30.05F
FINDLAY        CLOUDY    38  33  82 SW7       30.06S
TOLEDO EXPRESS CLOUDY    39  37  92 SW10      30.05S
TOLEDO METCALF CLOUDY    38  34  85 SW9       30.06S
LIMA           CLOUDY    37  35  92 S5        30.07S

$$
AND FOR LAKE MICHIGAN COASTAL AND OPEN LAKE BUOY OBSERVATIONS

STATION/POSITION TEMP    WIND        PRES    VSBY  WAVE
                 AIR SEA DIR/SP/G                  HT/PER
                 (F)     (DEG/KT/KT) (MB)    (MI)  (FT/S)
CALUMET HARBOR    43     200/  5/  7 1015.0F
MICHIGAN CITY     43     170/ 14/ 17   N/A
BURNS HARBOR      42     190/ 10/ 14 1016.3F
SAINT JOSEPH      42     190/ 10/ 15 1015.9

$$
&&




USA.gov is the U.S. government's official web portal to all federal, state and local government web resources and services.